Regional Weather Roundup
Issued by NWS

Current Version | Previous Version | Graphics & Text | Print | Product List | Glossary On
Versions: 1 2 3 4 5 6 7 8 9 10 11 12 13 14 15 16 17 18 19 20 21 22 23 24 25 26 27 28 29 30 31 32 33 34 35 36 37 38 39 40 41 42 43 44 45 46 47 48 49 50
000
ASHW40 PHFO 241812
RWRHI

WEATHER ROUNDUP FOR HAWAII
NATIONAL WEATHER SERVICE HONOLULU HI
800 AM HST TUE MAY 24 2016

THIS IS AN AUTOMATED REPORT THAT HAS NOT BEEN QUALITY CONTROLLED.

NOTE..."FAIR" INDICATES FEW OR NO CLOUDS BELOW 12,000 FEET WITH NO
SIGNIFICANT WEATHER AND/OR OBSTRUCTIONS TO VISIBILITY.

* - THESE SITES REPORT LIMITED FIELDS

HIZ001>004-241900-
KAUAI-NIIHAU-

CITY           SKY/WX    TMP DP  RH WIND       PRES   REMARKS
LIHUE APT      CLOUDY    75  70  84 NE12      30.10R
PORT ALLEN*      N/A     75 N/A N/A NE6         N/A
POIPU*           N/A     77 N/A N/A NE6G12      N/A
PRINCEVILLE*     N/A     72 N/A N/A S3          N/A
KOKOLE POINT*  NOT AVBL
MOLOAA DAIRY*    N/A     73  70  88 SE2         N/A
WAIMEA HTS*    NOT AVBL
PUU OPAE*      NOT AVBL
PUU LUA*       NOT AVBL
MAKAHA RIDGE*  NOT AVBL
$$

HIZ005>011-241900-
OAHU-

CITY           SKY/WX    TMP DP  RH WIND       PRES   REMARKS
HONOLULU       MOSUNNY   78  67  69 NE8       30.07R
KALAELOA       SUNNY     80  65  59 NE6       30.08S
KANEOHE MCB    PTSUNNY   77  66  68 E8        30.05S
WHEELER FIELD  FAIR      75  64  70 VRB3      30.08R
BELLOWS*       NOT AVBL
KAHUKU*        NOT AVBL
WHEELER*       NOT AVBL
WAIANAE HARBOR NOT AVBL
DILLINGHAM*      N/A     90  73  58 MISG        N/A  HX  98
KAHUKU TRN*      N/A     70  59  68 CALM        N/A
KAWAILOA*        N/A     72  63  73 E6G12       N/A
KII*             N/A     77  68  73 E12G18      N/A
MAKUA RANGE*     N/A     86  64  48 E3G12       N/A
OAHU FOREST NW NOT AVBL
SCHOFIELD BRK*   N/A     82  70  65 MISG        N/A
SCHOFIELD S*   NOT AVBL
WAIANAE VLY*   NOT AVBL
KUAOKALA*      NOT AVBL
HONOULIUULI*   NOT AVBL
MOKUOLOE IS*   NOT AVBL
PALEHUA*       NOT AVBL
WAIAWA PHB*    NOT AVBL
$$

HIZ012>013-241900-
MOLOKAI-

CITY           SKY/WX    TMP DP  RH WIND       PRES   REMARKS
MOLOKAI AIRPT  MOSUNNY   76  66  71 NE12      30.08S
KALAUPAPA      NOT AVBL
MAKAPULAPAI*   NOT AVBL
MOLOKAI 1*     NOT AVBL
PUU ALII*      NOT AVBL
$$

HIZ016-241900-
KAHOOLAWE-

CITY           SKY/WX    TMP DP  RH WIND       PRES   REMARKS
KAHOOLAWE*     NOT AVBL
HAKIOAWA*      NOT AVBL
HONOKANAIA*      N/A     78  64  61 N10         N/A
KANELOA*         N/A     73  64  73 NE3G14    30.12
KEALIALALO*    NOT AVBL
LUA MAKIKA*    NOT AVBL
$$

HIZ014>015-241900-
LANAI-

CITY           SKY/WX    TMP DP  RH WIND       PRES   REMARKS
LANAI CITY     FAIR      73  64  73 NE18      30.11S
LANAI 1*       NOT AVBL
$$

HIZ017>028-241900-
MAUI-

CITY           SKY/WX    TMP DP  RH WIND       PRES   REMARKS
KAHULUI        MOSUNNY   79  66  64 NE9       30.07S
KAPALUA-W MAUI NOT AVBL
HANA AIRPORT   NOT AVBL
HANA*            N/A     79 N/A N/A E5          N/A
HALEAKALA SUMM   N/A     45  37  76 E12G23      N/A
MAALAEA BAY*   NOT AVBL
HALEAKALA*     NOT AVBL
KAUPO GAP*     NOT AVBL
KULA 1*          N/A     51  38  62 NE2         N/A
$$

HIZ023>026-241900-
BIG ISLAND OF HAWAII COAST AND LOWER SLOPES-

CITY           SKY/WX    TMP DP  RH WIND       PRES   REMARKS
KAILUA KONA    MOSUNNY   79  70  74 E9        30.03R
HILO           MOSUNNY   77  67  71 W6        30.08R
HONOKAA*         N/A     72 N/A N/A VRB1        N/A
KAWAIHAE MWT*    N/A     81 N/A N/A W3          N/A
KAWAIHAE*      NOT AVBL
SOUTH POINT*     N/A     75 N/A N/A N14G22      N/A
UPOLU AIRPORT*   N/A    N/A N/A N/A NE16G23     N/A
KAMUELA*       CLEAR     72  57  60 NE20      30.16S
HAKALAU*         N/A     52  51  98 E3          N/A
KALOKO-HONOKO* NOT AVBL
PALI 2*          N/A     68  59  73 S12G17      N/A
KEALAKOMO*       N/A     81  64  57 E12G18      N/A
KAUPULEHU*     NOT AVBL
KAPAPALA*        N/A     75  61  62 N3          N/A
LOWER KAHUKU*  NOT AVBL
PUHE CS*       NOT AVBL
PUHO CS*       NOT AVBL
PTA KEAMUKU*     N/A     68  55  64 CALM        N/A
WAIKOLOA*      NOT AVBL
$$

HIZ027>028-241900-
BIG ISLAND OF HAWAII INTERIOR AND SUMMMITS-

CITY           SKY/WX    TMP DP  RH WIND       PRES   REMARKS
BRADSHAW FIELD PTSUNNY   58  47  66 W2        30.36R
MK VISITOR CEN   N/A     48  39  71 E6          N/A
MAUNA KEA*       N/A     41 -13   9 SE3         N/A
MAUNA LOA*       N/A    N/A N/A N/A MISG        N/A
MAUNA LOA 1*   NOT AVBL
PTA KIPUKA*      N/A     63  52  67 W3          N/A
PTA RANGE 17*    N/A     48  36  61 SW3         N/A
PTA WEST*        N/A     72  59  64 SW5G12      N/A
NENE CABIN*    NOT AVBL
AHUMOA*        NOT AVBL
PTA PORTABLE*  NOT AVBL
PUU MALI*        N/A     55  48  76 NW5G12      N/A
$$

HIC003-241900-
NORTHWEST ISLANDS-

CITY           SKY/WX    TMP DP  RH WIND       PRES   REMARKS
MIDWAY ISLAND  CLOUDY    70  70 100 E12       30.19R
MIDWAY NOS*    NOT AVBL
FRENCH FRIGATE NOT AVBL
$$

PHZ110>124-180-241900-
BUOY REPORTS

STATION/POSITION TIME  TEMP    WIND        PRES    WAVE   SWELL
                       AIR SEA DIR/SP/G            HT/PER HT/DIR
                 (UTC) (F)     (DEG/KT/KT) (MB)    (FT/S) (FT/D)
BUOY 51001       1700   79 79   90/ 12/ 14 1017.9R
BUOY 51101       1750   75 78   30/ 10/ 12 1019.8R   4/ 7   3/ 70
BUOY 51100       NOT AVBL
BUOY 51002       1750   78 78   70/ 14/ 16 1016.6R   6/ 8   5/ 70
BUOY 51003       1750   78 80   80/  8/  8 1017.4R   5/ 8   5/ 70
BUOY 51004       1750   78 79   60/ 16/ 17 1016.5R   7/ 8   5/ 90
BARBERS PT BUOY  NOT AVBL
WAIMEA BAY BUOY  1704      78                N/A     4/ 8
KAILUA BAY BUOY  1711      78                N/A     5/ 9   2/ 70
LANAI BUOY       1715      79                N/A     2/15   2/200
BARBERS PT 2     1703      79                N/A     3/15   2/190
PAUWELA MAUI     1709      77                N/A     5/ 8
HILO             1712      78                N/A     6/ 8   2/ 60
KANEOHE BAY BUOY 1706      78                N/A     5/ 8
HANALEI KAUAI    NOT AVBL
KAHULUI HARBOR   1700   74 78   40/ 10/ 13 1018.1R
HONOLULU HARBOR  1700   76 79   CALM  /  2 1018.6R
KILO NALU        NOT AVBL
HILO HARBOR      1700   73 78  200/  2/  3 1017.6R
MOKUOLOE         1700   77 79   70/  6/  8 1018.2R
NAWILIWILI       1700   72 80  230/  5/  7 1018.6R
WHOTS BUOY       NOT AVBL
BUOY 51028       NOT AVBL
$$

......................KEY........................................
  SKY/WX - SKY CONDITIONS/PRESENT WEATHER
  TMP    - TEMPERATURE IN FAHRENHEIT
  DWPT   - DEWPOINT IN FAHRENHEIT
  RH     - RELATIVE HUMIDITY IN PERCENT
  WIND   - DIRECTION AND SPEED /MPH FOR ISLANDS...KTS FOR BUOYS/
  PRES   - MEAN SEA LEVEL PRESSURE IN INCHES OF HG
  VSB    - VISIBILITY IN MILES
  HX     - HEAT INDEX
  WCI    - WIND CHILL INDEX
  VRB    - VARIABLE WIND DIRECTION
  N/A    - NOT AVAILABLE



USA.gov is the U.S. government's official web portal to all federal, state and local government web resources and services.